This is the latest recevied weather packets stored in our database for station/object K4CRS-13. If no packets are shown the sender has not sent any weather packets the latest 1 day(s).
| Time | Temp. | Humidity | Pressure | Rain* | Wind** | Luminosity | Snow |
|---|---|---|---|---|---|---|---|
| 1778103674 | 17.22° C | 97% | 1046.7 hPa | 0 mm | - | 117 W/m² | - |
| 1778103372 | 17.78° C | 97% | 1046.9 hPa | 1.78 mm | - | 86 W/m² | - |
| 1778101854 | 20.56° C | 96% | 1046.4 hPa | 0 mm | - | 35 W/m² | - |
| 1778099126 | 21.11° C | 95% | 1046.5 hPa | 0 mm | - | 47 W/m² | - |
| 1778098520 | 21.11° C | 95% | 1046.3 hPa | 0 mm | - | 85 W/m² | - |
| 1778096700 | 21.11° C | 98% | 1046.7 hPa | 0 mm | - | 242 W/m² | - |
| 1778095790 | 21.11° C | 98% | 1046.9 hPa | 0 mm | - | 285 W/m² | - |
| 1778094577 | 20.56° C | 99% | 1046.8 hPa | 3.05 mm | - | 781 W/m² | - |
| 1778094274 | 20° C | 99% | 1046.8 hPa | 4.83 mm | - | 240 W/m² | - |
| 1778093971 | 20° C | 99% | 1046.8 hPa | 6.6 mm | - | 101 W/m² | - |
| 1778093365 | 20° C | 99% | 1047.1 hPa | 3.05 mm | - | 134 W/m² | - |
| 1778091849 | 22.22° C | 99% | 1046.7 hPa | 0 mm | - | 58 W/m² | - |
| 1778090941 | 22.22° C | 99% | 1046.9 hPa | 0 mm | - | 381 W/m² | - |
| 1778090334 | 21.67° C | 99% | 1047.2 hPa | 0 mm | - | 231 W/m² | - |
| 1778089425 | 21.67° C | 99% | 1047 hPa | 0 mm | - | 76 W/m² | - |
| 1778088819 | 21.11° C | 99% | 1047.2 hPa | 0 mm | - | 104 W/m² | - |
| 1778088516 | 21.11° C | 99% | 1047.1 hPa | 0 mm | - | 106 W/m² | - |
| 1778087910 | 21.11° C | 99% | 1047.2 hPa | 0 mm | - | 123 W/m² | - |
| 1778087305 | 21.11° C | 99% | 1047.6 hPa | 0 mm | - | 82 W/m² | - |
| 1778086700 | 21.11° C | 99% | 1047.4 hPa | 0 mm | - | 127 W/m² | - |
| 1778086397 | 20.56° C | 99% | 1047.5 hPa | 0 mm | - | 99 W/m² | - |
| 1778085790 | 20.56° C | 99% | 1047.4 hPa | 0 mm | - | 56 W/m² | - |
| 1778084273 | 21.11° C | 99% | 1047.1 hPa | 0 mm | - | 157 W/m² | - |
| 1778083668 | 20.56° C | 99% | 1047 hPa | 0 mm | - | 198 W/m² | - |
| 1778083063 | 20.56° C | 99% | 1047 hPa | 0 mm | - | 148 W/m² | - |
* Rain latest hour (hover to see other rain measurements)
** Current wind speed in m/s (hover to see current wind gust speed)